CFG1KY EDDF-EGKK

Flight info

Callsign CFG1KY
Flight time 1h 4m
Altitude 32000
Route SOBRA8F SOBRA Y180 BITBU Y181 DEMUL M624 BUB L608 DENUT L610 TEBRA
Aircraft A320/M-SDE3FGHIRWY/LB1

Departure

Time 2026-04-14 06:40
Airport Frankfurt Main Airport (EDDF)

Arrival

Time 2026-04-14 07:44
Airport London Gatwick Airport (EGKK)
Time Latitude Longitude Altitude Speed Heading
2026-04-14 06:05 50.04898 8.58797 362 ft 0 kts 160°
2026-04-14 06:33 50.04901 8.58796 362 ft 1 kts 160°
2026-04-14 06:34 50.04936 8.58775 360 ft 3 kts 162°
2026-04-14 06:34 50.04955 8.58770 362 ft 3 kts 193°
2026-04-14 06:34 50.04972 8.58782 364 ft 3 kts 227°
2026-04-14 06:34 50.04982 8.58803 364 ft 1 kts 249°
2026-04-14 06:35 50.04986 8.58822 365 ft 3 kts 250°
2026-04-14 06:35 50.04989 8.58833 364 ft 0 kts 250°
2026-04-14 06:37 50.04989 8.58832 366 ft 1 kts 250°
2026-04-14 06:37 50.04963 8.58725 359 ft 18 kts 249°
2026-04-14 06:37 50.04873 8.58691 362 ft 12 kts 159°
2026-04-14 06:38 50.04861 8.58698 363 ft 0 kts 159°
2026-04-14 06:38 50.04854 8.58702 366 ft 6 kts 159°
2026-04-14 06:38 50.04765 8.58755 369 ft 20 kts 160°
2026-04-14 06:38 50.04635 8.58752 370 ft 18 kts 188°
2026-04-14 06:39 50.04535 8.58653 371 ft 20 kts 219°
2026-04-14 06:39 50.04410 8.58260 370 ft 75 kts 251°
2026-04-14 06:39 50.04151 8.57168 368 ft 137 kts 249°
2026-04-14 06:39 50.03762 8.55534 471 ft 175 kts 252°
2026-04-14 06:40 50.03336 8.53762 1214 ft 175 kts 251°
2026-04-14 06:40 50.02910 8.51996 2067 ft 174 kts 251°
2026-04-14 06:40 50.02150 8.50436 2548 ft 198 kts 216°
2026-04-14 06:40 50.00810 8.49547 2871 ft 223 kts 199°
2026-04-14 06:41 49.99267 8.48747 3322 ft 241 kts 199°
2026-04-14 06:41 49.97673 8.47905 4244 ft 242 kts 200°
2026-04-14 06:41 49.96083 8.47049 5217 ft 241 kts 200°
2026-04-14 06:41 49.94494 8.46183 6126 ft 243 kts 201°
2026-04-14 06:42 49.92985 8.44998 6955 ft 246 kts 216°
2026-04-14 06:42 49.91643 8.43189 7398 ft 267 kts 226°
2026-04-14 06:42 49.90288 8.41138 8102 ft 276 kts 225°
2026-04-14 06:42 49.88903 8.39053 9016 ft 278 kts 225°
2026-04-14 06:43 49.87507 8.36962 9945 ft 280 kts 225°
2026-04-14 06:43 49.86080 8.34833 10545 ft 294 kts 225°
2026-04-14 06:43 49.84548 8.32552 10817 ft 317 kts 224°
2026-04-14 06:43 49.82911 8.30120 11205 ft 334 kts 224°
2026-04-14 06:44 49.81264 8.27537 11885 ft 339 kts 231°
2026-04-14 06:44 49.80081 8.24372 12640 ft 343 kts 249°
2026-04-14 06:44 49.79587 8.20754 13407 ft 348 kts 266°
2026-04-14 06:44 49.79853 8.16998 14135 ft 354 kts 282°
2026-04-14 06:45 49.80450 8.13287 14804 ft 358 kts 282°
2026-04-14 06:45 49.81058 8.09532 15462 ft 361 kts 282°
2026-04-14 06:45 49.81660 8.05787 16101 ft 365 kts 282°
2026-04-14 06:45 49.82276 8.01902 16754 ft 369 kts 282°
2026-04-14 06:46 49.83495 7.94166 18017 ft 376 kts 282°
2026-04-14 06:46 49.84122 7.90160 18632 ft 379 kts 282°
2026-04-14 06:46 49.84743 7.86171 19190 ft 383 kts 282°
2026-04-14 06:47 49.85369 7.82150 19761 ft 386 kts 281°
2026-04-14 06:47 49.85992 7.78142 20325 ft 389 kts 281°
2026-04-14 06:47 49.86632 7.74059 20889 ft 392 kts 281°
2026-04-14 06:47 49.87288 7.69941 21444 ft 395 kts 281°
2026-04-14 06:48 49.87954 7.65790 21982 ft 398 kts 281°
2026-04-14 06:48 49.88628 7.61623 22511 ft 401 kts 281°
2026-04-14 06:48 49.89316 7.57413 23035 ft 404 kts 281°
2026-04-14 06:48 49.90012 7.53181 23541 ft 407 kts 282°
2026-04-14 06:49 49.90712 7.48905 23974 ft 410 kts 281°
2026-04-14 06:49 49.91412 7.44610 24386 ft 412 kts 281°
2026-04-14 06:49 49.92112 7.40287 24789 ft 414 kts 281°
2026-04-14 06:49 49.92812 7.35937 25187 ft 416 kts 281°
2026-04-14 06:50 49.93513 7.31557 25581 ft 418 kts 281°
2026-04-14 06:50 49.94209 7.27173 25971 ft 420 kts 281°
2026-04-14 06:50 49.94906 7.22754 26348 ft 422 kts 281°
2026-04-14 06:50 49.95603 7.18307 26729 ft 424 kts 281°
2026-04-14 06:51 49.96298 7.13847 27098 ft 426 kts 281°
2026-04-14 06:51 49.96992 7.09361 27453 ft 428 kts 281°
2026-04-14 06:51 49.97686 7.04850 27801 ft 430 kts 281°
2026-04-14 06:51 49.98375 7.00319 28147 ft 432 kts 281°
2026-04-14 06:52 49.99057 6.95763 28484 ft 434 kts 281°
2026-04-14 06:52 49.99732 6.91174 28808 ft 436 kts 281°
2026-04-14 06:52 50.00396 6.86569 29117 ft 437 kts 281°
2026-04-14 06:52 50.00693 6.81878 29412 ft 438 kts 266°
2026-04-14 06:53 50.00274 6.77185 29682 ft 439 kts 258°
2026-04-14 06:53 49.99594 6.72553 29940 ft 441 kts 257°
2026-04-14 06:53 49.98902 6.67903 30190 ft 444 kts 257°
2026-04-14 06:53 49.98353 6.63165 30403 ft 444 kts 263°
2026-04-14 06:54 49.98056 6.58396 30681 ft 444 kts 267°
2026-04-14 06:54 49.97928 6.53598 30971 ft 443 kts 269°
2026-04-14 06:54 49.97882 6.48805 31259 ft 443 kts 270°
2026-04-14 06:54 49.97845 6.44035 31554 ft 442 kts 270°
2026-04-14 06:55 49.97772 6.39262 31851 ft 441 kts 269°
2026-04-14 06:55 49.97656 6.34504 32085 ft 441 kts 268°
2026-04-14 06:55 49.97505 6.29755 32135 ft 437 kts 268°
2026-04-14 06:56 49.97149 6.20356 32134 ft 435 kts 267°
2026-04-14 06:56 49.96791 6.11008 32133 ft 434 kts 268°
2026-04-14 06:57 49.97365 6.01738 32132 ft 432 kts 285°
2026-04-14 06:57 49.99847 5.93309 32141 ft 431 kts 304°
2026-04-14 06:58 50.03893 5.86512 32141 ft 432 kts 315°
2026-04-14 06:58 50.08226 5.80043 32133 ft 432 kts 315°
2026-04-14 06:59 50.12547 5.73550 32138 ft 432 kts 315°
2026-04-14 06:59 50.16863 5.67037 32146 ft 431 kts 315°
2026-04-14 07:00 50.21176 5.60532 32146 ft 431 kts 315°
2026-04-14 07:00 50.25474 5.54019 32151 ft 431 kts 315°
2026-04-14 07:01 50.29770 5.47490 32151 ft 430 kts 315°
2026-04-14 07:01 50.34055 5.40975 32167 ft 429 kts 315°
2026-04-14 07:02 50.38331 5.34446 32172 ft 429 kts 315°
2026-04-14 07:02 50.42594 5.27909 32180 ft 428 kts 315°
2026-04-14 07:03 50.46847 5.21378 32184 ft 428 kts 315°
2026-04-14 07:03 50.51104 5.14837 32174 ft 427 kts 315°
2026-04-14 07:04 50.55332 5.08309 32179 ft 426 kts 315°
2026-04-14 07:04 50.59553 5.01768 32169 ft 425 kts 314°
2026-04-14 07:05 50.63764 4.95233 32174 ft 425 kts 315°
2026-04-14 07:05 50.67971 4.88690 32173 ft 424 kts 315°
2026-04-14 07:06 50.72167 4.82161 32180 ft 423 kts 315°
2026-04-14 07:06 50.76332 4.75664 32182 ft 423 kts 315°
2026-04-14 07:07 50.80516 4.69125 32191 ft 423 kts 315°
2026-04-14 07:07 50.84686 4.62578 32201 ft 422 kts 314°
2026-04-14 07:08 50.88841 4.56012 32209 ft 421 kts 314°
2026-04-14 07:08 50.92274 4.48518 32205 ft 420 kts 301°
2026-04-14 07:09 50.95306 4.40608 32198 ft 420 kts 302°
2026-04-14 07:09 50.98344 4.32704 32200 ft 419 kts 302°
2026-04-14 07:10 51.01369 4.24807 32192 ft 418 kts 302°
2026-04-14 07:10 51.04369 4.16911 32189 ft 417 kts 302°
2026-04-14 07:11 51.07365 4.09019 32194 ft 416 kts 302°
2026-04-14 07:11 51.10349 4.01139 32188 ft 416 kts 302°
2026-04-14 07:12 51.12820 3.94584 32180 ft 415 kts 302°
2026-04-14 07:12 51.16267 3.85430 32168 ft 414 kts 302°
2026-04-14 07:13 51.19222 3.77553 32170 ft 414 kts 302°
2026-04-14 07:13 51.22164 3.69672 32177 ft 413 kts 301°
2026-04-14 07:14 51.24033 3.62597 32173 ft 416 kts 287°
2026-04-14 07:14 51.25240 3.53621 32169 ft 416 kts 284°
2026-04-14 07:15 51.26431 3.44573 32164 ft 416 kts 285°
2026-04-14 07:15 51.27617 3.35559 32164 ft 415 kts 285°
2026-04-14 07:16 51.28777 3.26524 32168 ft 415 kts 285°
2026-04-14 07:16 51.29930 3.17500 32159 ft 414 kts 285°
2026-04-14 07:17 51.31074 3.08500 32163 ft 413 kts 285°
2026-04-14 07:17 51.32207 2.99502 32157 ft 413 kts 285°
2026-04-14 07:18 51.33334 2.90500 32167 ft 413 kts 285°
2026-04-14 07:18 51.34451 2.81495 32165 ft 413 kts 285°
2026-04-14 07:19 51.35561 2.72497 32167 ft 412 kts 285°
2026-04-14 07:19 51.36670 2.63574 32165 ft 411 kts 285°
2026-04-14 07:20 51.37782 2.54586 31612 ft 412 kts 285°
2026-04-14 07:20 51.38329 2.50088 31222 ft 411 kts 285°
2026-04-14 07:20 51.38874 2.45591 30855 ft 412 kts 285°
2026-04-14 07:20 51.39418 2.41095 30481 ft 412 kts 285°
2026-04-14 07:21 51.39962 2.36581 30101 ft 413 kts 285°
2026-04-14 07:21 51.40502 2.32057 29675 ft 413 kts 285°
2026-04-14 07:21 51.41041 2.27541 29244 ft 414 kts 284°
2026-04-14 07:21 51.41582 2.23016 28827 ft 412 kts 284°
2026-04-14 07:22 51.42120 2.18519 28398 ft 410 kts 284°
2026-04-14 07:22 51.42656 2.14037 27944 ft 407 kts 284°
2026-04-14 07:22 51.43185 2.09596 27498 ft 405 kts 284°
2026-04-14 07:22 51.43705 2.05175 27047 ft 403 kts 284°
2026-04-14 07:23 51.44218 2.00769 26605 ft 400 kts 283°
2026-04-14 07:23 51.44726 1.96456 26184 ft 398 kts 284°
2026-04-14 07:23 51.45255 1.92112 25760 ft 396 kts 284°
2026-04-14 07:23 51.45797 1.87783 25350 ft 394 kts 284°
2026-04-14 07:24 51.46332 1.83486 24931 ft 393 kts 283°
2026-04-14 07:24 51.46846 1.79195 24527 ft 391 kts 283°
2026-04-14 07:24 51.47342 1.74907 24126 ft 390 kts 282°
2026-04-14 07:24 51.47829 1.70643 23730 ft 388 kts 282°
2026-04-14 07:25 51.48311 1.66393 23298 ft 387 kts 281°
2026-04-14 07:25 51.48485 1.62086 22879 ft 388 kts 269°
2026-04-14 07:25 51.48072 1.57809 22470 ft 389 kts 257°
2026-04-14 07:25 51.47184 1.53705 22071 ft 389 kts 252°
2026-04-14 07:26 51.46243 1.49643 21657 ft 387 kts 252°
2026-04-14 07:26 51.45308 1.45600 21280 ft 385 kts 252°
2026-04-14 07:26 51.44356 1.41604 20891 ft 384 kts 248°
2026-04-14 07:26 51.43004 1.37906 20512 ft 386 kts 236°
2026-04-14 07:27 51.41163 1.34789 20136 ft 388 kts 222°
2026-04-14 07:27 51.39001 1.32193 19765 ft 387 kts 219°
2026-04-14 07:27 51.36836 1.29651 19399 ft 384 kts 219°
2026-04-14 07:27 51.34693 1.27128 19028 ft 382 kts 219°
2026-04-14 07:28 51.32559 1.24612 18675 ft 379 kts 219°
2026-04-14 07:28 51.30446 1.22119 18311 ft 376 kts 219°
2026-04-14 07:28 51.28347 1.19642 17905 ft 374 kts 219°
2026-04-14 07:28 51.26253 1.17174 17491 ft 372 kts 219°
2026-04-14 07:29 51.24180 1.14731 17096 ft 370 kts 219°
2026-04-14 07:29 51.22114 1.12298 16698 ft 368 kts 219°
2026-04-14 07:29 51.20083 1.09914 16298 ft 366 kts 219°
2026-04-14 07:29 51.18036 1.07516 15930 ft 365 kts 219°
2026-04-14 07:30 51.15989 1.05123 15553 ft 363 kts 219°
2026-04-14 07:30 51.13960 1.02755 15180 ft 361 kts 218°
2026-04-14 07:30 51.11936 1.00396 14814 ft 360 kts 218°
2026-04-14 07:30 51.09930 0.98058 14448 ft 355 kts 218°
2026-04-14 07:31 51.07951 0.95754 14089 ft 349 kts 219°
2026-04-14 07:31 51.06156 0.93234 13696 ft 341 kts 231°
2026-04-14 07:31 51.04838 0.90159 13298 ft 333 kts 245°
2026-04-14 07:31 51.03862 0.86866 12911 ft 327 kts 246°
2026-04-14 07:32 51.02898 0.83619 12518 ft 323 kts 246°
2026-04-14 07:32 51.01939 0.80419 12131 ft 318 kts 246°
2026-04-14 07:32 51.00993 0.77279 11825 ft 312 kts 246°
2026-04-14 07:32 51.00068 0.74210 11518 ft 306 kts 246°
2026-04-14 07:33 50.99159 0.71192 11217 ft 300 kts 246°
2026-04-14 07:33 50.98270 0.68230 10923 ft 295 kts 246°
2026-04-14 07:33 50.97395 0.65306 10620 ft 290 kts 246°
2026-04-14 07:34 50.94862 0.56875 9718 ft 277 kts 246°
2026-04-14 07:34 50.94030 0.54133 9388 ft 274 kts 245°
2026-04-14 07:34 50.93207 0.51423 9018 ft 272 kts 245°
2026-04-14 07:35 50.92387 0.48724 8704 ft 271 kts 245°
2026-04-14 07:35 50.91749 0.45933 8390 ft 269 kts 259°
2026-04-14 07:35 50.91617 0.42999 8081 ft 268 kts 274°
2026-04-14 07:35 50.91954 0.40298 7795 ft 268 kts 286°
2026-04-14 07:36 50.92432 0.37893 7531 ft 267 kts 286°
2026-04-14 07:36 50.92960 0.35081 7386 ft 266 kts 285°
2026-04-14 07:36 50.93470 0.32284 7154 ft 261 kts 285°
2026-04-14 07:36 50.93963 0.29546 6879 ft 255 kts 284°
2026-04-14 07:37 50.94595 0.26959 6604 ft 251 kts 299°
2026-04-14 07:37 50.95700 0.24865 6326 ft 248 kts 319°
2026-04-14 07:37 50.97082 0.23250 6037 ft 245 kts 322°
2026-04-14 07:37 50.98451 0.21677 5738 ft 241 kts 321°
2026-04-14 07:38 50.99804 0.20113 5445 ft 240 kts 321°
2026-04-14 07:38 51.01142 0.18560 5158 ft 238 kts 321°
2026-04-14 07:38 51.02476 0.17006 4885 ft 237 kts 321°
2026-04-14 07:38 51.03807 0.15453 4596 ft 237 kts 320°
2026-04-14 07:39 51.05115 0.13925 4304 ft 236 kts 320°
2026-04-14 07:39 51.06444 0.12372 4034 ft 237 kts 320°
2026-04-14 07:39 51.07772 0.10824 3696 ft 236 kts 320°
2026-04-14 07:39 51.09101 0.09270 3374 ft 238 kts 320°
2026-04-14 07:40 51.10431 0.07714 3046 ft 238 kts 320°
2026-04-14 07:40 51.11769 0.06146 2725 ft 238 kts 320°
2026-04-14 07:40 51.13089 0.04605 2599 ft 232 kts 321°
2026-04-14 07:40 51.14361 0.03121 2505 ft 222 kts 320°
2026-04-14 07:41 51.15595 0.01682 2408 ft 217 kts 321°
2026-04-14 07:41 51.16622 0.00059 2316 ft 199 kts 296°
2026-04-14 07:41 51.17040 -0.01957 2196 ft 189 kts 269°
2026-04-14 07:41 51.16876 -0.03985 1936 ft 181 kts 253°
2026-04-14 07:42 51.16617 -0.05874 1704 ft 167 kts 253°
2026-04-14 07:42 51.16381 -0.07605 1501 ft 151 kts 253°
2026-04-14 07:42 51.16167 -0.09187 1281 ft 142 kts 253°
2026-04-14 07:42 51.15963 -0.10702 1031 ft 139 kts 253°
2026-04-14 07:43 51.15753 -0.12181 852 ft 139 kts 254°
2026-04-14 07:43 51.15542 -0.13679 698 ft 139 kts 255°
2026-04-14 07:43 51.15338 -0.15195 506 ft 141 kts 255°
2026-04-14 07:43 51.15131 -0.16714 284 ft 140 kts 255°
2026-04-14 07:44 51.14935 -0.18190 208 ft 124 kts 257°
2026-04-14 07:44 51.14805 -0.19108 212 ft 63 kts 257°
2026-04-14 07:44 51.14752 -0.19558 212 ft 36 kts 265°
2026-04-14 07:44 51.14796 -0.19914 206 ft 21 kts 282°
2026-04-14 07:45 51.14844 -0.20060 210 ft 6 kts
2026-04-14 07:45 51.14872 -0.19945 214 ft 21 kts 80°
2026-04-14 07:45 51.14907 -0.19691 211 ft 24 kts 77°
2026-04-14 07:45 51.14943 -0.19418 216 ft 26 kts 78°
2026-04-14 07:46 51.14984 -0.19131 207 ft 28 kts 77°
2026-04-14 07:46 51.15027 -0.18818 203 ft 30 kts 78°
2026-04-14 07:46 51.15073 -0.18490 215 ft 30 kts 77°
2026-04-14 07:46 51.15117 -0.18170 216 ft 24 kts 77°
2026-04-14 07:47 51.15163 -0.18073 205 ft 6 kts 349°
2026-04-14 07:47 51.15253 -0.18101 205 ft 16 kts 348°
2026-04-14 07:47 51.15358 -0.18138 214 ft 15 kts 348°
2026-04-14 07:47 51.15453 -0.18173 208 ft 14 kts 342°
2026-04-14 07:48 51.15561 -0.18218 206 ft 16 kts 347°
2026-04-14 07:48 51.15659 -0.18219 207 ft 13 kts 48°
2026-04-14 07:48 51.15685 -0.18069 205 ft 18 kts 78°
2026-04-14 07:48 51.15716 -0.17847 205 ft 20 kts 77°
2026-04-14 07:49 51.15745 -0.17716 207 ft 6 kts
2026-04-14 07:49 51.15788 -0.17725 205 ft 6 kts 348°
2026-04-14 07:49 51.15823 -0.17738 205 ft 4 kts 347°
2026-04-14 07:49 51.15828 -0.17739 205 ft 0 kts 346°
2026-04-14 07:53 51.15809 -0.17753 213 ft 0 kts 349°